| time (UTC) | temp F | wind direction | speed MPH | gust MPH | rain 1hr in | rain 24hr in | rain mn in | humidity % | barometer mb |
| 20260510020913 | 71 | 202 | 4.0 | 6.0 | 0.00 | 0.00 | 0.00 | 1009.7 | |
| 20260510020814 | 71 | 157 | 2.0 | 4.0 | 0.00 | 0.00 | 0.00 | 1009.7 | |
| 20260510020713 | 71 | 225 | 3.0 | 4.0 | 0.00 | 0.00 | 0.00 | 1009.6 | |
| 20260510020014 | 72 | 180 | 4.0 | 6.0 | 0.00 | 0.00 | 0.00 | 1009.6 | |
| 20260510015913 | 72 | 225 | 3.0 | 5.0 | 0.00 | 0.00 | 0.00 | 1009.6 | |
| 20260510015513 | 72 | 225 | 2.0 | 4.0 | 0.00 | 0.00 | 0.00 | 1009.6 | |
| 20260510015113 | 72 | 180 | 2.0 | 3.0 | 0.00 | 0.00 | 0.00 | 1009.6 | |
| 20260510014413 | 73 | 202 | 2.0 | 6.0 | 0.00 | 0.00 | 0.00 | 1009.4 | |
| 20260510012513 | 74 | 225 | 3.0 | 5.0 | 0.00 | 0.00 | 0.00 | 1009.4 | |
| 20260510012414 | 74 | 202 | 1.0 | 2.0 | 0.00 | 0.00 | 0.00 | 1009.5 | |
| 20260510012313 | 74 | 225 | 5.0 | 7.0 | 0.00 | 0.00 | 0.00 | 1009.6 | |
| 20260510011013 | 75 | 247 | 3.0 | 6.0 | 0.00 | 0.00 | 0.00 | 1009.6 | |
| 20260510010313 | 75 | 180 | 2.0 | 4.0 | 0.00 | 0.00 | 0.00 | 1009.5 | |
| 20260510005913 | 76 | 225 | 2.0 | 4.0 | 0.00 | 0.00 | 0.00 | 1009.4 | |
| 20260510005813 | 76 | 225 | 3.0 | 6.0 | 0.00 | 0.00 | 0.00 | 1009.5 | |
| 20260510005413 | 76 | 180 | 4.0 | 7.0 | 0.00 | 0.00 | 0.00 | 1009.5 | |
| 20260510005013 | 76 | 180 | 3.0 | 4.0 | 0.00 | 0.00 | 0.00 | 1009.3 | |
| 20260510004013 | 77 | 202 | 4.0 | 7.0 | 0.00 | 0.00 | 0.00 | 1009.3 | |
| 20260510003613 | 77 | 225 | 4.0 | 6.0 | 0.00 | 0.00 | 0.00 | 1009.2 | |
| 20260510003514 | 77 | 247 | 3.0 | 5.0 | 0.00 | 0.00 | 0.00 | 1009.2 | |
| 20260510003413 | 77 | 225 | 5.0 | 6.0 | 0.00 | 0.00 | 0.00 | 1009.2 | |
| 20260510002413 | 78 | 202 | 4.0 | 8.0 | 0.00 | 0.00 | 0.00 | 1009.3 | |
| 20260510002313 | 78 | 202 | 3.0 | 7.0 | 0.00 | 0.00 | 0.00 | 1009.5 | |
| 20260510002213 | 78 | 157 | 4.0 | 8.0 | 0.00 | 0.00 | 0.00 | 1009.4 | |
| 20260510001813 | 79 | 157 | 5.0 | 6.0 | 0.00 | 0.00 | 0.00 | 1009.3 | |
| 20260510001413 | 79 | 225 | 4.0 | 6.0 | 0.00 | 0.00 | 0.00 | 1009.3 | |
| 20260510001313 | 80 | 202 | 5.0 | 6.0 | 0.00 | 0.00 | 0.00 | 1009.2 | |
| 20260510000913 | 80 | 157 | 4.0 | 7.0 | 0.00 | 0.00 | 0.00 | 1009.4 | |
| 20260510000213 | 81 | 202 | 3.0 | 8.0 | 0.00 | 0.00 | 0.00 | 1009.3 | |
| 20260509235813 | 81 | 225 | 6.0 | 10.0 | 0.00 | 0.00 | 0.00 | 1009.4 | |
| 20260509235413 | 81 | 247 | 6.0 | 8.0 | 0.00 | 0.00 | 0.00 | 1009.3 | |
| 20260509235013 | 81 | 180 | 2.0 | 3.0 | 0.00 | 0.00 | 0.00 | 1009.3 | |
| 20260509233713 | 82 | 225 | 7.0 | 9.0 | 0.00 | 0.00 | 0.00 | 1009.3 | |
| 20260509232713 | 83 | 202 | 6.0 | 10.0 | 0.00 | 0.00 | 0.00 | 1009.3 | |
| 20260509232613 | 83 | 225 | 3.0 | 4.0 | 0.00 | 0.00 | 0.00 | 1009.1 | |
| 20260509232213 | 83 | 157 | 3.0 | 6.0 | 0.00 | 0.00 | 0.00 | 1009.2 | |
| 20260509231213 | 84 | 202 | 4.0 | 8.0 | 0.00 | 0.00 | 0.00 | 1009.1 | |
| 20260509230513 | 84 | 202 | 3.0 | 4.0 | 0.00 | 0.00 | 0.00 | 1009.1 | |
| 20260509230413 | 84 | 225 | 5.0 | 7.0 | 0.00 | 0.00 | 0.00 | 1009.1 | |
| 20260509230313 | 84 | 225 | 5.0 | 8.0 | 0.00 | 0.00 | 0.00 | 1009.2 | |
| 20260509230213 | 85 | 225 | 6.0 | 9.0 | 0.00 | 0.00 | 0.00 | 1009.4 | |
| 20260509230113 | 85 | 225 | 6.0 | 9.0 | 0.00 | 0.00 | 0.00 | 1009.3 | |
| 20260509230013 | 85 | 225 | 3.0 | 6.0 | 0.00 | 0.00 | 0.00 | 1009.3 | |
| 20260509225013 | 86 | 202 | 6.0 | 9.0 | 0.00 | 0.00 | 0.00 | 1009.3 | |
| 20260509224913 | 86 | 225 | 6.0 | 9.0 | 0.00 | 0.00 | 0.00 | 1009.3 | |
| 20260509224814 | 86 | 225 | 4.0 | 7.0 | 0.00 | 0.00 | 0.00 | 1009.3 | |
| 20260509224713 | 87 | 225 | 3.0 | 6.0 | 0.00 | 0.00 | 0.00 | 1009.4 | |
| 20260509224613 | 87 | 225 | 6.0 | 10.0 | 0.00 | 0.00 | 0.00 | 1009.3 | |
| 20260509224513 | 87 | 270 | 3.0 | 5.0 | 0.00 | 0.00 | 0.00 | 1009.4 | |
| 20260509224413 | 87 | 180 | 3.0 | 5.0 | 0.00 | 0.00 | 0.00 | 1009.3 | |
| 20260509224013 | 88 | 202 | 5.0 | 7.0 | 0.00 | 0.00 | 0.00 | 1009.5 | |
| 20260509223013 | 88 | 180 | 3.0 | 6.0 | 0.00 | 0.00 | 0.00 | 1009.7 | |
| 20260509222913 | 88 | 202 | 3.0 | 5.0 | 0.00 | 0.00 | 0.00 | 1009.5 | |
| 20260509222813 | 87 | 225 | 3.0 | 6.0 | 0.00 | 0.00 | 0.00 | 1009.5 | |
| 20260509222713 | 88 | 247 | 4.0 | 8.0 | 0.00 | 0.00 | 0.00 | 1009.5 | |
| 20260509222613 | 88 | 202 | 5.0 | 7.0 | 0.00 | 0.00 | 0.00 | 1009.6 | |
| 20260509222213 | 88 | 157 | 2.0 | 3.0 | 0.00 | 0.00 | 0.00 | 1009.5 | |
| 20260509221513 | 88 | 202 | 4.0 | 8.0 | 0.00 | 0.00 | 0.00 | 1009.6 | |
| 20260509221113 | 87 | 157 | 2.0 | 4.0 | 0.00 | 0.00 | 0.00 | 1009.7 | |
| 20260509221013 | 87 | 180 | 2.0 | 3.0 | 0.00 | 0.00 | 0.00 | 1009.6 | |
| 20260509220613 | 87 | 225 | 1.0 | 3.0 | 0.00 | 0.00 | 0.00 | 1009.7 | |
| 20260509215913 | 87 | 225 | 5.0 | 9.0 | 0.00 | 0.00 | 0.00 | 1009.7 | |
| 20260509215213 | 87 | 270 | 2.0 | 3.0 | 0.00 | 0.00 | 0.00 | 1009.9 | |
| 20260509215113 | 87 | 180 | 4.0 | 4.0 | 0.00 | 0.00 | 0.00 | 1009.9 | |
| 20260509214413 | 88 | 225 | 5.0 | 9.0 | 0.00 | 0.00 | 0.00 | 1010.0 | |
| 20260509214313 | 88 | 180 | 3.0 | 4.0 | 0.00 | 0.00 | 0.00 | 1010.0 | |
| 20260509214213 | 88 | 202 | 2.0 | 3.0 | 0.00 | 0.00 | 0.00 | 1009.9 | |
| 20260509213813 | 87 | 202 | 4.0 | 7.0 | 0.00 | 0.00 | 0.00 | 1010.2 | |
| 20260509213713 | 87 | 180 | 3.0 | 7.0 | 0.00 | 0.00 | 0.00 | 1010.1 | |
| 20260509213613 | 87 | 202 | 4.0 | 7.0 | 0.00 | 0.00 | 0.00 | 1010.3 | |
| 20260509213213 | 87 | 225 | 2.0 | 4.0 | 0.00 | 0.00 | 0.00 | 1010.3 | |
| 20260509213113 | 87 | 180 | 3.0 | 4.0 | 0.00 | 0.00 | 0.00 | 1010.3 | |
| 20260509213013 | 87 | 157 | 2.0 | 3.0 | 0.00 | 0.00 | 0.00 | 1010.2 | |
| 20260509212913 | 87 | 180 | 5.0 | 8.0 | 0.00 | 0.00 | 0.00 | 1010.3 | |
| 20260509212513 | 86 | 292 | 2.0 | 4.0 | 0.00 | 0.00 | 0.00 | 1010.4 | |
| 20260509212413 | 86 | 292 | 2.0 | 4.0 | 0.00 | 0.00 | 0.00 | 1010.2 | |
| 20260509212013 | 86 | 225 | 2.0 | 6.0 | 0.00 | 0.00 | 0.00 | 1010.3 | |
| 20260509211614 | 86 | 202 | 2.0 | 3.0 | 0.00 | 0.00 | 0.00 | 1010.3 | |
| 20260509211513 | 86 | 135 | 3.0 | 7.0 | 0.00 | 0.00 | 0.00 | 1010.4 | |
| 20260509210513 | 86 | 180 | 4.0 | 7.0 | 0.00 | 0.00 | 0.00 | 1010.5 | |
| 20260509210413 | 86 | 225 | 3.0 | 6.0 | 0.00 | 0.00 | 0.00 | 1010.4 | |
| 20260509205713 | 84 | 180 | 4.0 | 9.0 | 0.00 | 0.00 | 0.00 | 1010.5 | |
| 20260509204713 | 85 | 315 | 3.0 | 4.0 | 0.00 | 0.00 | 0.00 | 1010.8 | |
| 20260509203413 | 86 | 225 | 3.0 | 6.0 | 0.00 | 0.00 | 0.00 | 1010.7 | |
| 20260509203314 | 85 | 180 | 3.0 | 5.0 | 0.00 | 0.00 | 0.00 | 1010.9 | |
| 20260509202613 | 84 | 225 | 3.0 | 7.0 | 0.00 | 0.00 | 0.00 | 1010.8 | |
| 20260509202213 | 84 | 225 | 2.0 | 4.0 | 0.00 | 0.00 | 0.00 | 1010.8 | |
| 20260509201813 | 83 | 157 | 3.0 | 6.0 | 0.00 | 0.00 | 0.00 | 1010.9 | |
| 20260509195913 | 83 | 225 | 2.0 | 4.0 | 0.00 | 0.00 | 0.00 | 1010.8 | |
| 20260509195813 | 83 | 157 | 2.0 | 4.0 | 0.00 | 0.00 | 0.00 | 1010.9 | |
| 20260509195113 | 81 | 225 | 2.0 | 4.0 | 0.00 | 0.00 | 0.00 | 1010.9 | |
| 20260509195013 | 81 | 157 | 2.0 | 4.0 | 0.00 | 0.00 | 0.00 | 1011.1 | |
| 20260509194613 | 80 | 45 | 1.0 | 1.0 | 0.00 | 0.00 | 0.00 | 1011.2 | |
| 20260509194513 | 80 | 112 | 4.0 | 6.0 | 0.00 | 0.00 | 0.00 | 1011.0 | |
| 20260509194413 | 80 | 225 | 3.0 | 5.0 | 0.00 | 0.00 | 0.00 | 1011.4 | |
| 20260509192513 | 78 | 315 | 1.0 | 2.0 | 0.00 | 0.00 | 0.00 | 1011.5 | |
| 20260509191513 | 78 | 225 | 3.0 | 4.0 | 0.00 | 0.00 | 0.00 | 1011.5 | |
| 20260509190813 | 78 | 22 | 2.0 | 3.0 | 0.00 | 0.00 | 0.00 | 1011.4 | |
| 20260509190413 | 77 | 225 | 1.0 | 2.0 | 0.00 | 0.00 | 0.00 | 1011.4 | |
| 20260509190013 | 77 | 180 | 3.0 | 5.0 | 0.00 | 0.00 | 0.00 | 1011.6 | |
| 20260509185913 | 77 | 270 | 4.0 | 6.0 | 0.00 | 0.00 | 0.00 | 1011.5 | |
| 20260509185813 | 77 | 157 | 4.0 | 6.0 | 0.00 | 0.00 | 0.00 | 1011.7 | |
| 20260509185413 | 77 | 225 | 3.0 | 4.0 | 0.00 | 0.00 | 0.00 | 1011.6 | |
| 20260509184113 | 75 | 180 | 2.0 | 5.0 | 0.00 | 0.00 | 0.00 | 1011.5 | |
| 20260509184013 | 75 | 202 | 3.0 | 4.0 | 0.00 | 0.00 | 0.00 | 1011.7 | |
| 20260509182413 | 75 | 202 | 3.0 | 6.0 | 0.00 | 0.00 | 0.00 | 1011.8 | |
| 20260509180213 | 74 | 180 | 2.0 | 4.0 | 0.00 | 0.00 | 0.00 | 1012.3 | |
| 20260509175813 | 74 | 90 | 1.0 | 2.0 | 0.00 | 0.00 | 0.00 | 1012.1 | |
| 20260509175713 | 74 | 202 | 2.0 | 4.0 | 0.00 | 0.00 | 0.00 | 1012.2 | |
| 20260509175613 | 74 | 202 | 1.0 | 4.0 | 0.00 | 0.00 | 0.00 | 1012.1 | |
| 20260509174013 | 74 | 180 | 2.0 | 4.0 | 0.00 | 0.00 | 0.00 | 1012.1 | |
| 20260509173613 | 74 | 315 | 1.0 | 2.0 | 0.00 | 0.00 | 0.00 | 1012.2 | |
| 20260509173513 | 74 | 45 | 1.0 | 2.0 | 0.00 | 0.00 | 0.00 | 1012.1 | |
| 20260509173413 | 73 | 67 | 2.0 | 2.0 | 0.00 | 0.00 | 0.00 | 1012.1 | |
| 20260509172113 | 71 | 157 | 1.0 | 2.0 | 0.00 | 0.00 | 0.00 | 1012.2 | |
| 20260509172013 | 71 | 90 | 2.0 | 3.0 | 0.00 | 0.00 | 0.00 | 1012.1 | |
| 20260509171913 | 71 | 315 | 1.0 | 1.0 | 0.00 | 0.00 | 0.00 | 1012.2 | |
| 20260509171814 | 71 | 270 | 1.0 | 2.0 | 0.00 | 0.00 | 0.00 | 1012.1 | |
| 20260509171713 | 71 | 180 | 1.0 | 2.0 | 0.00 | 0.00 | 0.00 | 1012.1 | |
| 20260509171313 | 70 | 90 | 1.0 | 1.0 | 0.00 | 0.00 | 0.00 | 1012.1 | |
| 20260509170013 | 69 | 225 | 1.0 | 2.0 | 0.00 | 0.00 | 0.00 | 1012.0 | |
| 20260509165313 | 68 | 135 | 2.0 | 3.0 | 0.00 | 0.00 | 0.00 | 1012.2 | |
| 20260509165213 | 68 | 135 | 2.0 | 3.0 | 0.00 | 0.00 | 0.00 | 1012.3 | |
| 20260509164813 | 68 | 180 | 3.0 | 4.0 | 0.00 | 0.00 | 0.00 | 1012.3 | |
| 20260509164713 | 68 | 292 | 4.0 | 5.0 | 0.00 | 0.00 | 0.00 | 1012.3 | |
| 20260509164313 | 69 | 157 | 0.0 | 1.0 | 0.00 | 0.00 | 0.00 | 1012.3 | |
| 20260509163013 | 69 | 112 | 1.0 | 2.0 | 0.00 | 0.00 | 0.00 | 1012.3 | |
| 20260509162913 | 69 | 202 | 1.0 | 1.0 | 0.00 | 0.00 | 0.00 | 1012.1 | |
| 20260509162814 | 70 | 202 | 1.0 | 1.0 | 0.00 | 0.00 | 0.00 | 1012.2 | |
| 20260509162413 | 69 | 270 | 1.0 | 2.0 | 0.00 | 0.00 | 0.00 | 1012.3 | |
| 20260509162313 | 68 | 135 | 1.0 | 2.0 | 0.00 | 0.00 | 0.00 | 1012.4 | |
| 20260509161913 | 68 | 135 | 1.0 | 2.0 | 0.00 | 0.00 | 0.00 | 1012.3 | |
| 20260509161813 | 67 | 157 | 2.0 | 3.0 | 0.00 | 0.00 | 0.00 | 1012.3 | |
| 20260509161713 | 67 | 157 | 1.0 | 2.0 | 0.00 | 0.00 | 0.00 | 1012.3 | |
| 20260509161313 | 68 | 225 | 3.0 | 3.0 | 0.00 | 0.00 | 0.00 | 1012.2 | |
| 20260509161213 | 68 | 225 | 2.0 | 3.0 | 0.00 | 0.00 | 0.00 | 1012.3 | |
| 20260509155613 | 67 | 180 | 1.0 | 1.0 | 0.00 | 0.00 | 0.00 | 1012.2 | |
| 20260509154613 | 65 | 45 | 0.0 | 0.0 | 0.00 | 0.00 | 0.00 | 1012.5 | |
| 20260509153913 | 64 | 202 | 2.0 | 3.0 | 0.00 | 0.00 | 0.00 | 1012.5 | |
| 20260509153213 | 65 | 180 | 1.0 | 2.0 | 0.00 | 0.00 | 0.00 | 1012.5 | |
| 20260509152813 | 64 | 67 | 2.0 | 2.0 | 0.00 | 0.00 | 0.00 | 1012.7 | |
| 20260509151513 | 62 | 180 | 1.0 | 2.0 | 0.00 | 0.00 | 0.00 | 1012.5 | |
| 20260509151415 | 62 | 157 | 1.0 | 2.0 | 0.00 | 0.00 | 0.00 | 1012.3 | |
| 20260509151313 | 62 | 157 | 1.0 | 2.0 | 0.00 | 0.00 | 0.00 | 1012.5 | |
| 20260509150913 | 62 | 135 | 1.0 | 1.0 | 0.00 | 0.00 | 0.00 | 1012.3 | |
| 20260509150814 | 62 | 135 | 1.0 | 1.0 | 0.00 | 0.00 | 0.00 | 1012.4 | |
| 20260509150713 | 62 | 135 | 1.0 | 1.0 | 0.00 | 0.00 | 0.00 | 1012.3 | |
| 20260509145713 | 61 | 112 | 0.0 | 0.0 | 0.00 | 0.00 | 0.00 | 1012.5 | |
| 20260509145613 | 61 | 112 | 0.0 | 0.0 | 0.00 | 0.00 | 0.00 | 1012.6 | |
| 20260509145513 | 61 | 112 | 0.0 | 1.0 | 0.00 | 0.00 | 0.00 | 1012.6 | |
| 20260509145415 | 61 | 112 | 1.0 | 2.0 | 0.00 | 0.00 | 0.00 | 1012.5 | |
| 20260509145313 | 61 | 90 | 1.0 | 2.0 | 0.00 | 0.00 | 0.00 | 1012.6 | |
| 20260509145214 | 61 | 337 | 0.0 | 0.0 | 0.00 | 0.00 | 0.00 | 1012.6 | |
| 20260509145113 | 61 | 315 | 0.0 | 0.0 | 0.00 | 0.00 | 0.00 | 1012.5 | |
| 20260509145014 | 60 | 337 | 1.0 | 1.0 | 0.00 | 0.00 | 0.00 | 1012.6 | |
| 20260509144915 | 60 | 337 | 1.0 | 2.0 | 0.00 | 0.00 | 0.00 | 1012.4 | |
| 20260509144213 | 60 | 22 | 1.0 | 2.0 | 0.00 | 0.00 | 0.00 | 1012.6 | |
| 20260509143813 | 60 | 45 | 2.0 | 2.0 | 0.00 | 0.00 | 0.00 | 1012.4 | |
| 20260509143414 | 59 | 135 | 1.0 | 1.0 | 0.00 | 0.00 | 0.00 | 1012.4 | |
| 20260509143313 | 59 | 45 | 0.0 | 1.0 | 0.00 | 0.00 | 0.00 | 1012.4 | |
| 20260509142913 | 59 | 0 | 1.0 | 2.0 | 0.00 | 0.00 | 0.00 | 1012.6 | |
| 20260509142513 | 59 | 22 | 2.0 | 3.0 | 0.00 | 0.00 | 0.00 | 1012.4 | |
| 20260509142413 | 59 | 45 | 2.0 | 3.0 | 0.00 | 0.00 | 0.00 | 1012.5 | |
| 20260509142313 | 59 | 45 | 2.0 | 3.0 | 0.00 | 0.00 | 0.00 | 1012.5 | |
| 20260509142213 | 59 | 22 | 1.0 | 1.0 | 0.00 | 0.00 | 0.00 | 1012.5 | |
| 20260509142113 | 59 | 22 | 1.0 | 2.0 | 0.00 | 0.00 | 0.00 | 1012.5 | |
| 20260509142013 | 59 | 22 | 2.0 | 2.0 | 0.00 | 0.00 | 0.00 | 1012.5 | |
| 20260509140713 | 58 | 0 | 1.0 | 1.0 | 0.00 | 0.00 | 0.00 | 1012.5 | |
| 20260509135713 | 58 | 292 | 1.0 | 2.0 | 0.00 | 0.00 | 0.00 | 1012.6 | |
| 20260509135314 | 58 | 292 | 1.0 | 1.0 | 0.00 | 0.00 | 0.00 | 1012.6 | |
| 20260509134613 | 58 | 315 | 1.0 | 1.0 | 0.00 | 0.00 | 0.00 | 1012.4 | |
| 20260509134213 | 57 | 337 | 1.0 | 2.0 | 0.00 | 0.00 | 0.00 | 1012.2 | |
| 20260509134113 | 58 | 292 | 0.0 | 0.0 | 0.00 | 0.00 | 0.00 | 1012.3 | |
| 20260509133713 | 57 | 45 | 1.0 | 2.0 | 0.00 | 0.00 | 0.00 | 1012.3 | |
| 20260509133613 | 57 | 337 | 2.0 | 3.0 | 0.00 | 0.00 | 0.00 | 1012.3 | |
| 20260509132913 | 57 | 292 | 1.0 | 2.0 | 0.00 | 0.00 | 0.00 | 1012.1 | |
| 20260509132813 | 57 | 315 | 1.0 | 1.0 | 0.00 | 0.00 | 0.00 | 1011.8 | |
| 20260509131213 | 57 | 45 | 0.0 | 1.0 | 0.00 | 0.00 | 0.00 | 1012.0 | |
| 20260509131113 | 57 | 45 | 0.0 | 0.0 | 0.00 | 0.00 | 0.00 | 1012.0 | |
| 20260509131013 | 57 | 45 | 0.0 | 0.0 | 0.00 | 0.00 | 0.00 | 1012.1 | |
| 20260509130314 | 57 | 337 | 2.0 | 3.0 | 0.00 | 0.00 | 0.00 | 1011.9 | |
| 20260509125313 | 57 | 0 | 0.0 | 0.0 | 0.00 | 0.00 | 0.00 | 1012.0 | |
| 20260509125213 | 57 | 180 | 0.0 | 0.0 | 0.00 | 0.00 | 0.00 | 1011.8 | |
| 20260509125113 | 57 | 180 | 0.0 | 0.0 | 0.00 | 0.00 | 0.00 | 1011.9 | |
| 20260509124413 | 57 | 247 | 0.0 | 0.0 | 0.00 | 0.00 | 0.00 | 1011.9 | |
| 20260509123713 | 57 | 337 | 1.0 | 2.0 | 0.00 | 0.00 | 0.00 | 1011.9 | |
| 20260509123313 | 57 | 315 | 1.0 | 1.0 | 0.00 | 0.00 | 0.00 | 1011.8 | |
| 20260509121413 | 57 | 315 | 1.0 | 1.0 | 0.00 | 0.00 | 0.00 | 1011.9 | |
| 20260509121314 | 57 | 315 | 1.0 | 2.0 | 0.00 | 0.00 | 0.00 | 1011.7 | |
| 20260509120313 | 57 | 337 | 2.0 | 3.0 | 0.00 | 0.00 | 0.00 | 1011.9 | |
| 20260509120213 | 57 | 337 | 2.0 | 3.0 | 0.00 | 0.00 | 0.00 | 1012.0 | |
| 20260509120113 | 57 | 315 | 2.0 | 2.0 | 0.00 | 0.00 | 0.00 | 1012.0 | |
| 20260509120013 | 57 | 337 | 2.0 | 3.0 | 0.00 | 0.00 | 0.00 | 1011.9 | |
| 20260509115913 | 57 | 337 | 2.0 | 3.0 | 0.00 | 0.00 | 0.00 | 1011.9 | |
| 20260509115813 | 57 | 337 | 1.0 | 2.0 | 0.00 | 0.00 | 0.00 | 1011.9 | |
| 20260509115713 | 57 | 337 | 2.0 | 2.0 | 0.00 | 0.00 | 0.00 | 1012.0 | |
| 20260509115613 | 57 | 0 | 2.0 | 2.0 | 0.00 | 0.00 | 0.00 | 1011.9 | |
| 20260509115513 | 57 | 315 | 1.0 | 2.0 | 0.00 | 0.00 | 0.00 | 1012.1 | |
| 20260509115413 | 57 | 22 | 1.0 | 2.0 | 0.00 | 0.00 | 0.00 | 1012.0 | |
| 20260509115013 | 57 | 22 | 1.0 | 1.0 | 0.00 | 0.00 | 0.00 | 1011.9 | |
| 20260509114313 | 57 | 337 | 1.0 | 2.0 | 0.00 | 0.00 | 0.00 | 1012.0 | |
| 20260509114213 | 57 | 22 | 1.0 | 1.0 | 0.00 | 0.00 | 0.00 | 1011.9 | |
| 20260509114114 | 57 | 45 | 1.0 | 2.0 | 0.00 | 0.00 | 0.00 | 1012.0 | |
| 20260509113714 | 57 | 45 | 2.0 | 2.0 | 0.00 | 0.00 | 0.00 | 1012.0 | |
| 20260509113613 | 57 | 22 | 2.0 | 3.0 | 0.00 | 0.00 | 0.00 | 1012.0 | |
| 20260509113513 | 57 | 45 | 2.0 | 3.0 | 0.00 | 0.00 | 0.00 | 1011.9 | |
| 20260509112514 | 57 | 45 | 2.0 | 3.0 | 0.00 | 0.00 | 0.00 | 1012.0 | |
| 20260509111814 | 57 | 22 | 0.0 | 1.0 | 0.00 | 0.00 | 0.00 | 1011.8 | |
| 20260509111713 | 57 | 157 | 0.0 | 1.0 | 0.00 | 0.00 | 0.00 | 1011.8 | |
| 20260509111613 | 57 | 315 | 1.0 | 2.0 | 0.00 | 0.00 | 0.00 | 1012.1 | |
| 20260509110913 | 57 | 0 | 1.0 | 2.0 | 0.00 | 0.00 | 0.00 | 1011.8 | |
| 20260509110813 | 57 | 337 | 1.0 | 1.0 | 0.00 | 0.00 | 0.00 | 1011.7 | |
| 20260509110413 | 58 | 292 | 1.0 | 2.0 | 0.00 | 0.00 | 0.00 | 1011.9 | |
| 20260509110313 | 58 | 0 | 1.0 | 2.0 | 0.00 | 0.00 | 0.00 | 1011.9 | |
| 20260509105913 | 58 | 292 | 2.0 | 3.0 | 0.00 | 0.00 | 0.00 | 1011.9 | |
| 20260509105813 | 58 | 315 | 3.0 | 4.0 | 0.00 | 0.00 | 0.00 | 1011.9 | |
| 20260509105114 | 58 | 315 | 0.0 | 1.0 | 0.00 | 0.00 | 0.00 | 1011.8 | |
| 20260509104713 | 58 | 315 | 1.0 | 1.0 | 0.00 | 0.00 | 0.00 | 1011.9 | |
| 20260509104313 | 58 | 337 | 1.0 | 1.0 | 0.00 | 0.00 | 0.00 | 1011.8 | |
| 20260509104214 | 58 | 45 | 1.0 | 2.0 | 0.00 | 0.00 | 0.00 | 1012.1 | |
| 20260509103513 | 58 | 315 | 0.0 | 2.0 | 0.00 | 0.00 | 0.00 | 1012.0 | |
| 20260509103413 | 58 | 337 | 1.0 | 2.0 | 0.00 | 0.00 | 0.00 | 1012.1 | |
| 20260509103313 | 58 | 292 | 1.0 | 2.0 | 0.00 | 0.00 | 0.00 | 1011.9 | |
| 20260509102614 | 58 | 22 | 1.0 | 1.0 | 0.00 | 0.00 | 0.00 | 1012.0 | |
| 20260509102213 | 58 | 22 | 1.0 | 1.0 | 0.00 | 0.00 | 0.00 | 1012.0 | |
| 20260509102113 | 58 | 0 | 0.0 | 1.0 | 0.00 | 0.00 | 0.00 | 1012.0 | |
| 20260509102013 | 58 | 225 | 0.0 | 0.0 | 0.00 | 0.00 | 0.00 | 1011.9 | |
| 20260509101913 | 58 | 225 | 0.0 | 0.0 | 0.00 | 0.00 | 0.00 | 1012.1 | |
| 20260509101214 | 58 | 202 | 0.0 | 0.0 | 0.00 | 0.00 | 0.00 | 1012.1 | |
| 20260509101113 | 58 | 225 | 0.0 | 0.0 | 0.00 | 0.00 | 0.00 | 1012.0 | |
| 20260509101013 | 58 | 202 | 0.0 | 0.0 | 0.00 | 0.00 | 0.00 | 1012.1 | |
| 20260509100913 | 58 | 202 | 0.0 | 1.0 | 0.00 | 0.00 | 0.00 | 1012.0 | |
| 20260509100813 | 58 | 180 | 1.0 | 2.0 | 0.00 | 0.00 | 0.00 | 1012.2 | |
| 20260509100713 | 58 | 225 | 1.0 | 2.0 | 0.00 | 0.00 | 0.00 | 1012.0 | |
| 20260509100613 | 58 | 202 | 0.0 | 1.0 | 0.00 | 0.00 | 0.00 | 1012.0 | |
| 20260509100213 | 58 | 90 | 0.0 | 0.0 | 0.00 | 0.00 | 0.00 | 1012.2 | |
| 20260509095813 | 58 | 135 | 1.0 | 1.0 | 0.00 | 0.00 | 0.00 | 1012.2 | |
| 20260509094813 | 58 | 202 | 0.0 | 0.0 | 0.00 | 0.00 | 0.00 | 1012.3 | |
| 20260509094713 | 58 | 180 | 0.0 | 0.0 | 0.00 | 0.00 | 0.00 | 1012.4 | |
| 20260509094613 | 58 | 157 | 0.0 | 0.0 | 0.00 | 0.00 | 0.00 | 1012.5 | |
| 20260509094514 | 58 | 202 | 0.0 | 0.0 | 0.00 | 0.00 | 0.00 | 1012.3 | |
| 20260509094413 | 58 | 202 | 0.0 | 0.0 | 0.00 | 0.00 | 0.00 | 1012.3 | |
| 20260509094313 | 58 | 202 | 0.0 | 0.0 | 0.00 | 0.00 | 0.00 | 1012.2 | |
| 20260509094213 | 58 | 202 | 1.0 | 1.0 | 0.00 | 0.00 | 0.00 | 1012.3 | |
| 20260509094113 | 58 | 202 | 1.0 | 2.0 | 0.00 | 0.00 | 0.00 | 1012.5 | |
| 20260509093113 | 58 | 202 | 1.0 | 1.0 | 0.00 | 0.00 | 0.00 | 1012.5 | |
| 20260509093013 | 58 | 202 | 1.0 | 1.0 | 0.00 | 0.00 | 0.00 | 1012.3 | |
| 20260509092913 | 58 | 225 | 1.0 | 2.0 | 0.00 | 0.00 | 0.00 | 1012.3 | |
| 20260509092813 | 58 | 270 | 0.0 | 1.0 | 0.00 | 0.00 | 0.00 | 1012.4 | |
| 20260509092713 | 58 | 270 | 0.0 | 0.0 | 0.00 | 0.00 | 0.00 | 1012.2 | |
| 20260509092613 | 58 | 247 | 0.0 | 0.0 | 0.00 | 0.00 | 0.00 | 1012.4 | |
| 20260509092213 | 58 | 270 | 0.0 | 0.0 | 0.00 | 0.00 | 0.00 | 1012.5 | |
| 20260509091814 | 57 | 202 | 0.0 | 1.0 | 0.00 | 0.00 | 0.00 | 1012.6 | |
| 20260509091714 | 57 | 202 | 0.0 | 0.0 | 0.00 | 0.00 | 0.00 | 1012.5 | |
| 20260509091614 | 57 | 180 | 0.0 | 0.0 | 0.00 | 0.00 | 0.00 | 1012.5 | |
| 20260509091213 | 57 | 225 | 0.0 | 1.0 | 0.00 | 0.00 | 0.00 | 1012.5 | |
| 20260509091113 | 57 | 225 | 0.0 | 1.0 | 0.00 | 0.00 | 0.00 | 1012.4 | |
| 20260509091014 | 57 | 270 | 0.0 | 0.0 | 0.00 | 0.00 | 0.00 | 1012.5 | |
| 20260509090913 | 57 | 270 | 1.0 | 1.0 | 0.00 | 0.00 | 0.00 | 1012.3 | |
| 20260509090813 | 57 | 270 | 0.0 | 1.0 | 0.00 | 0.00 | 0.00 | 1012.3 | |
| 20260509090713 | 57 | 337 | 0.0 | 0.0 | 0.00 | 0.00 | 0.00 | 1012.4 | |
| 20260509090613 | 57 | 270 | 0.0 | 1.0 | 0.00 | 0.00 | 0.00 | 1012.3 | |
| 20260509084413 | 57 | 247 | 1.0 | 1.0 | 0.00 | 0.00 | 0.00 | 1012.6 | |
| 20260509084313 | 57 | 225 | 1.0 | 2.0 | 0.00 | 0.00 | 0.00 | 1012.6 | |
| 20260509083913 | 56 | 292 | 1.0 | 1.0 | 0.00 | 0.00 | 0.00 | 1012.7 | |
| 20260509082913 | 56 | 247 | 0.0 | 0.0 | 0.00 | 0.00 | 0.00 | 1012.6 | |
| 20260509082213 | 57 | 247 | 2.0 | 2.0 | 0.00 | 0.00 | 0.00 | 1012.7 | |
| 20260509082113 | 57 | 247 | 1.0 | 1.0 | 0.00 | 0.00 | 0.00 | 1012.7 | |
| 20260509082013 | 57 | 247 | 1.0 | 1.0 | 0.00 | 0.00 | 0.00 | 1012.7 | |
| 20260509081614 | 57 | 247 | 1.0 | 1.0 | 0.00 | 0.00 | 0.00 | 1012.7 | |
| 20260509081513 | 57 | 225 | 1.0 | 1.0 | 0.00 | 0.00 | 0.00 | 1012.8 | |
| 20260509081413 | 57 | 225 | 1.0 | 1.0 | 0.00 | 0.00 | 0.00 | 1012.8 | |
| 20260509081313 | 57 | 202 | 1.0 | 1.0 | 0.00 | 0.00 | 0.00 | 1012.8 | |
| 20260509080014 | 57 | 180 | 1.0 | 2.0 | 0.00 | 0.00 | 0.00 | 1012.8 | |
| 20260509075913 | 57 | 225 | 1.0 | 2.0 | 0.00 | 0.00 | 0.00 | 1012.8 | |
| 20260509075813 | 57 | 180 | 1.0 | 2.0 | 0.00 | 0.00 | 0.00 | 1012.8 | |
| 20260509073913 | 57 | 225 | 1.0 | 2.0 | 0.00 | 0.00 | 0.00 | 1012.5 | |
| 20260509071413 | 58 | 225 | 1.0 | 2.0 | 0.00 | 0.00 | 0.00 | 1013.0 | |
| 20260509071313 | 58 | 225 | 2.0 | 3.0 | 0.00 | 0.00 | 0.00 | 1012.9 | |
| 20260509071213 | 58 | 225 | 1.0 | 3.0 | 0.00 | 0.00 | 0.00 | 1012.9 | |
| 20260509070813 | 58 | 225 | 2.0 | 3.0 | 0.00 | 0.00 | 0.00 | 1013.0 | |
| 20260509065814 | 58 | 202 | 1.0 | 2.0 | 0.00 | 0.00 | 0.00 | 1013.1 | |
| 20260509065713 | 58 | 225 | 2.0 | 3.0 | 0.00 | 0.00 | 0.00 | 1013.1 | |
| 20260509065613 | 58 | 225 | 2.0 | 3.0 | 0.00 | 0.00 | 0.00 | 1013.1 | |
| 20260509065513 | 58 | 202 | 2.0 | 4.0 | 0.00 | 0.00 | 0.00 | 1013.1 | |
| 20260509064813 | 58 | 225 | 0.0 | 1.0 | 0.00 | 0.00 | 0.00 | 1012.8 | |
| 20260509064413 | 58 | 225 | 2.0 | 2.0 | 0.00 | 0.00 | 0.00 | 1013.2 | |
| 20260509064013 | 58 | 247 | 1.0 | 1.0 | 0.00 | 0.00 | 0.00 | 1013.1 | |
| 20260509063913 | 58 | 202 | 1.0 | 1.0 | 0.00 | 0.00 | 0.00 | 1012.9 | |
| 20260509063813 | 58 | 202 | 1.0 | 2.0 | 0.00 | 0.00 | 0.00 | 1013.1 | |
| 20260509063713 | 58 | 202 | 0.0 | 0.0 | 0.00 | 0.00 | 0.00 | 1012.7 | |
| 20260509063313 | 58 | 225 | 2.0 | 2.0 | 0.00 | 0.00 | 0.00 | 1012.9 | |
| 20260509062313 | 59 | 202 | 1.0 | 3.0 | 0.00 | 0.00 | 0.00 | 1012.8 | |
| 20260509061913 | 59 | 180 | 1.0 | 2.0 | 0.00 | 0.00 | 0.00 | 1013.0 | |
| 20260509061214 | 59 | 202 | 0.0 | 2.0 | 0.00 | 0.00 | 0.00 | 1012.9 | |
| 20260509060213 | 59 | 180 | 0.0 | 1.0 | 0.00 | 0.00 | 0.00 | 1012.8 | |
| 20260509060113 | 59 | 202 | 1.0 | 1.0 | 0.00 | 0.00 | 0.00 | 1012.8 | |
| 20260509060013 | 59 | 202 | 1.0 | 2.0 | 0.00 | 0.00 | 0.00 | 1012.9 | |
| 20260509055613 | 59 | 180 | 0.0 | 1.0 | 0.00 | 0.00 | 0.00 | 1012.8 | |
| 20260509055513 | 59 | 202 | 1.0 | 2.0 | 0.00 | 0.00 | 0.00 | 1012.8 | |
| 20260509055113 | 59 | 157 | 0.0 | 1.0 | 0.00 | 0.00 | 0.00 | 1012.9 | |
| 20260509054414 | 59 | 202 | 1.0 | 2.0 | 0.00 | 0.00 | 0.00 | 1012.8 | |
| 20260509054313 | 59 | 202 | 0.0 | 1.0 | 0.00 | 0.00 | 0.00 | 1013.0 | |
| 20260509054213 | 59 | 180 | 1.0 | 1.0 | 0.00 | 0.00 | 0.00 | 1012.9 | |
| 20260509053813 | 60 | 225 | 0.0 | 1.0 | 0.00 | 0.00 | 0.00 | 1013.0 | |
| 20260509053713 | 60 | 202 | 1.0 | 1.0 | 0.00 | 0.00 | 0.00 | 1012.9 | |
| 20260509053613 | 60 | 180 | 1.0 | 2.0 | 0.00 | 0.00 | 0.00 | 1012.8 | |
| 20260509053513 | 60 | 202 | 1.0 | 2.0 | 0.00 | 0.00 | 0.00 | 1012.9 | |
| 20260509052513 | 60 | 180 | 1.0 | 2.0 | 0.00 | 0.00 | 0.00 | 1013.0 | |
| 20260509051815 | 60 | 180 | 0.0 | 1.0 | 0.00 | 0.00 | 0.00 | 1013.1 | |
| 20260509051713 | 60 | 180 | 0.0 | 1.0 | 0.00 | 0.00 | 0.00 | 1013.1 | |
| 20260509051013 | 60 | 202 | 0.0 | 1.0 | 0.00 | 0.00 | 0.00 | 1012.9 | |
| 20260509050913 | 60 | 202 | 1.0 | 2.0 | 0.00 | 0.00 | 0.00 | 1012.7 | |
| 20260509050813 | 60 | 202 | 0.0 | 1.0 | 0.00 | 0.00 | 0.00 | 1012.9 | |
| 20260509050113 | 60 | 180 | 0.0 | 1.0 | 0.00 | 0.00 | 0.00 | 1013.0 | |
| 20260509045413 | 60 | 180 | 1.0 | 2.0 | 0.00 | 0.00 | 0.00 | 1013.0 | |
| 20260509044113 | 61 | 225 | 1.0 | 3.0 | 0.00 | 0.00 | 0.00 | 1012.8 | |
| 20260509043713 | 61 | 202 | 1.0 | 2.0 | 0.00 | 0.00 | 0.00 | 1012.8 | |
| 20260509042713 | 61 | 247 | 2.0 | 4.0 | 0.00 | 0.00 | 0.00 | 1012.5 | |
| 20260509042613 | 61 | 225 | 0.0 | 1.0 | 0.00 | 0.00 | 0.00 | 1012.8 | |
| 20260509042213 | 61 | 180 | 0.0 | 1.0 | 0.00 | 0.00 | 0.00 | 1012.7 | |
| 20260509041213 | 62 | 225 | 3.0 | 5.0 | 0.00 | 0.00 | 0.00 | 1012.5 | |
| 20260509040213 | 62 | 202 | 2.0 | 3.0 | 0.00 | 0.00 | 0.00 | 1012.3 | |
| 20260509040113 | 62 | 225 | 3.0 | 5.0 | 0.00 | 0.00 | 0.00 | 1012.3 | |
| 20260509035413 | 63 | 180 | 3.0 | 4.0 | 0.00 | 0.00 | 0.00 | 1012.2 | |
| 20260509035313 | 63 | 202 | 2.0 | 3.0 | 0.00 | 0.00 | 0.00 | 1012.2 | |
| 20260509034913 | 63 | 180 | 1.0 | 2.0 | 0.00 | 0.00 | 0.00 | 1012.3 | |
| 20260509034813 | 63 | 202 | 3.0 | 3.0 | 0.00 | 0.00 | 0.00 | 1012.1 | |
| 20260509034713 | 63 | 225 | 3.0 | 4.0 | 0.00 | 0.00 | 0.00 | 1012.2 | |
| 20260509034613 | 63 | 202 | 3.0 | 4.0 | 0.00 | 0.00 | 0.00 | 1012.2 | |
| 20260509034513 | 63 | 225 | 3.0 | 4.0 | 0.00 | 0.00 | 0.00 | 1012.2 | |
| 20260509034413 | 63 | 202 | 2.0 | 4.0 | 0.00 | 0.00 | 0.00 | 1012.2 | |
| 20260509034313 | 63 | 180 | 2.0 | 4.0 | 0.00 | 0.00 | 0.00 | 1012.2 | |
| 20260509034213 | 64 | 202 | 1.0 | 3.0 | 0.00 | 0.00 | 0.00 | 1012.2 | |
| 20260509033513 | 64 | 225 | 1.0 | 3.0 | 0.00 | 0.00 | 0.00 | 1012.1 | |
| 20260509033113 | 64 | 180 | 2.0 | 3.0 | 0.00 | 0.00 | 0.00 | 1012.1 | |
| 20260509032713 | 64 | 225 | 2.0 | 3.0 | 0.00 | 0.00 | 0.00 | 1012.2 | |
| 20260509031713 | 65 | 180 | 1.0 | 1.0 | 0.00 | 0.00 | 0.00 | 1012.0 | |
| 20260509031613 | 65 | 157 | 2.0 | 2.0 | 0.00 | 0.00 | 0.00 | 1011.9 | |
| 20260509031213 | 65 | 225 | 2.0 | 3.0 | 0.00 | 0.00 | 0.00 | 1012.0 | |
| 20260509031113 | 65 | 180 | 3.0 | 3.0 | 0.00 | 0.00 | 0.00 | 1012.1 | |
| 20260509031013 | 65 | 202 | 3.0 | 4.0 | 0.00 | 0.00 | 0.00 | 1012.1 | |
| 20260509030913 | 65 | 225 | 3.0 | 4.0 | 0.00 | 0.00 | 0.00 | 1012.0 | |
| 20260509030213 | 65 | 202 | 3.0 | 5.0 | 0.00 | 0.00 | 0.00 | 1011.9 | |
| 20260509025213 | 66 | 180 | 1.0 | 2.0 | 0.00 | 0.00 | 0.00 | 1011.6 | |
| 20260509024813 | 66 | 202 | 1.0 | 2.0 | 0.00 | 0.00 | 0.00 | 1011.6 | |
| 20260509024713 | 66 | 202 | 1.0 | 2.0 | 0.00 | 0.00 | 0.00 | 1011.6 | |
| 20260509024613 | 66 | 180 | 1.0 | 2.0 | 0.00 | 0.00 | 0.00 | 1011.6 | |
| 20260509024513 | 66 | 225 | 2.0 | 4.0 | 0.00 | 0.00 | 0.00 | 1011.5 | |
| 20260509023814 | 66 | 270 | 3.0 | 4.0 | 0.00 | 0.00 | 0.00 | 1011.5 | |
| 20260509023413 | 67 | 225 | 4.0 | 6.0 | 0.00 | 0.00 | 0.00 | 1011.6 | |
| 20260509023313 | 67 | 225 | 3.0 | 5.0 | 0.00 | 0.00 | 0.00 | 1011.6 | |
| 20260509022313 | 67 | 202 | 1.0 | 3.0 | 0.00 | 0.00 | 0.00 | 1011.6 | |
| 20260509022213 | 67 | 225 | 3.0 | 4.0 | 0.00 | 0.00 | 0.00 | 1011.6 | |
| 20260509021213 | 68 | 225 | 4.0 | 6.0 | 0.00 | 0.00 | 0.00 | 1011.6 |